Aurora, NE

3:51 AM CDT on March 27, 2017 (GMT -0500)
Aurora Municipal

Weather History for KAUH - November, 2012

Change the Weather History Date:

Tuesday, November 27, 2012

  Actual Average Record
Temperature  
Mean Temperature 29 °F -  
Max Temperature 46 °F 39 °F 71 °F (1998)
Min Temperature 12 °F 20 °F -1 °F (1976)
Degree Days  
Heating Degree Days 36    
Moisture  
Dew Point 19 °F    
Average Humidity 73    
Maximum Humidity 86    
Minimum Humidity 42    
Precipitation  
Precipitation 0.00 in - - ()
Sea Level Pressure  
Sea Level Pressure 30.26 in    
Wind  
Wind Speed 8 mph (WSW)    
Max Wind Speed 23 mph    
Max Gust Speed 31 mph    
Visibility 10 miles    
Events      
Averages and records for this station are not official NWS values.
T = Trace of Precipitation, MM = Missing Value Source: NWS Daily Summary

Daily Weather History Graph

Daily Weather History Graph

Search for Another Location

Airport or City:

Trip Planner

Search our weather history database for the weather conditions in past years. The results will help you decide how hot, cold, wet, or windy it might be!

Date:

Astronomy

Nov. 27, 2012 Rise Set
Actual Time 7:33 AM CST 5:05 PM CST
Civil Twilight 7:03 AM CST 5:36 PM CST
Nautical Twilight 6:29 AM CST 6:10 PM CST
Astronomical Twilight 5:56 AM CST 6:42 PM CST
Moon 4:38 PM CST 6:39 AM CST
Length of Visible Light 10h 32m
Length of Day
9h 32m
Waxing Gibbous, 99% of the Moon is Illuminated
Nov 27
Waxing Gibbous
Nov 28
Full
Dec 6
Last Quarter
Dec 13
New
Dec 19
First Quarter

Hourly Weather History & Observations

Time (CST) Temp. Windchill Dew Point Humidity Pressure Visibility Wind Dir Wind Speed Gust Speed Precip Events Conditions
12:15 AM 13.8 °F 8.0 °F 10.0 °F 85% 30.41 in 10.0 mi WSW 3.5 mph - N/A   Clear
12:35 AM 12.7 °F 5.0 °F 8.8 °F 84% 30.40 in 10.0 mi WSW 4.6 mph - N/A   Clear
12:55 AM 13.1 °F - 9.3 °F 85% 30.39 in 7.0 mi Calm Calm - N/A   Clear
1:15 AM 13.5 °F 7.5 °F 9.7 °F 85% 30.39 in 7.0 mi SW 3.5 mph - N/A   Clear
1:35 AM 13.3 °F - 9.3 °F 84% 30.38 in 10.0 mi Calm Calm - N/A   Clear
1:55 AM 14.9 °F - 11.3 °F 86% 30.37 in 7.0 mi Calm Calm - N/A   Clear
2:15 AM 16.2 °F 10.6 °F 12.6 °F 86% 30.37 in 7.0 mi SW 3.5 mph - N/A   Clear
2:35 AM 14.0 °F 8.2 °F 10.0 °F 84% 30.37 in 7.0 mi SW 3.5 mph - N/A   Clear
2:55 AM 16.2 °F 6.5 °F 12.6 °F 86% 30.37 in 7.0 mi SSW 6.9 mph - N/A   Clear
3:15 AM 15.8 °F 8.6 °F 12.0 °F 85% 30.36 in 7.0 mi SSW 4.6 mph - N/A   Clear
3:35 AM 18.1 °F 11.3 °F 14.5 °F 86% 30.35 in 7.0 mi SW 4.6 mph - N/A   Clear
3:55 AM 17.1 °F 10.0 °F 13.5 °F 86% 30.34 in 7.0 mi SSW 4.6 mph - N/A   Clear
4:15 AM 18.7 °F 9.5 °F 15.1 °F 86% 30.33 in 7.0 mi SSW 6.9 mph - N/A   Clear
4:35 AM 17.6 °F 8.2 °F 13.8 °F 85% 30.32 in 10.0 mi SSW 6.9 mph - N/A   Clear
4:55 AM 17.1 °F 6.6 °F 13.1 °F 84% 30.31 in 10.0 mi SW 8.1 mph - N/A   Clear
5:15 AM 18.5 °F 8.4 °F 14.5 °F 85% 30.31 in 10.0 mi SW 8.1 mph - N/A   Clear
5:35 AM 18.7 °F 7.8 °F 14.9 °F 85% 30.30 in 10.0 mi SW 9.2 mph - N/A   Clear
5:55 AM 18.7 °F 7.0 °F 14.7 °F 85% 30.29 in 10.0 mi SW 10.4 mph - N/A   Clear
6:15 AM 19.0 °F 7.5 °F 14.9 °F 84% 30.29 in 10.0 mi SW 10.4 mph - N/A   Clear
6:35 AM 19.2 °F 8.4 °F 14.9 °F 83% 30.29 in 10.0 mi SW 9.2 mph - N/A   Clear
6:55 AM 19.4 °F 8.6 °F 15.3 °F 84% 30.29 in 10.0 mi SW 9.2 mph - N/A   Clear
7:15 AM 19.2 °F 8.4 °F 14.9 °F 83% 30.29 in 10.0 mi SSW 9.2 mph - N/A   Clear
7:35 AM 19.0 °F 8.2 °F 14.5 °F 83% 30.28 in 10.0 mi SSW 9.2 mph - N/A   Clear
7:55 AM 19.4 °F 7.9 °F 14.9 °F 83% 30.27 in 10.0 mi SSW 10.4 mph - N/A   Clear
8:15 AM 19.9 °F 8.6 °F 15.4 °F 83% 30.27 in 10.0 mi SSW 10.4 mph - N/A   Clear
8:35 AM 21.2 °F 8.9 °F 16.7 °F 83% 30.26 in 10.0 mi SSW 12.7 mph - N/A   Clear
8:55 AM 23.0 °F 10.6 °F 18.7 °F 84% 30.27 in 10.0 mi SSW 13.8 mph - N/A   Clear
9:15 AM 25.0 °F 13.1 °F 20.3 °F 82% 30.27 in 10.0 mi SSW 13.8 mph - N/A   Clear
9:35 AM 27.5 °F 16.3 °F 22.1 °F 80% 30.25 in 10.0 mi SSW 13.8 mph - N/A   Clear
9:55 AM 29.3 °F 18.6 °F 23.7 °F 80% 30.25 in 10.0 mi SSW 13.8 mph - N/A   Clear
10:15 AM 31.6 °F 20.7 °F 24.8 °F 76% 30.25 in 10.0 mi SSW 16.1 mph 23.0 mph N/A   Clear
10:35 AM 32.4 °F 20.9 °F 25.2 °F 75% 30.24 in 10.0 mi SSW 18.4 mph 24.2 mph N/A   Clear
10:55 AM 34.0 °F 22.7 °F 25.7 °F 72% 30.23 in 10.0 mi SSW 19.6 mph 24.2 mph N/A   Clear
11:15 AM 35.6 °F 24.5 °F 26.2 °F 69% 30.22 in 10.0 mi SSW 20.7 mph - N/A   Clear
11:35 AM 37.6 °F 26.6 °F 26.1 °F 63% 30.20 in 10.0 mi SW 23.0 mph 29.9 mph N/A   Clear
11:55 AM 39.2 °F 28.7 °F 25.9 °F 59% 30.18 in 10.0 mi SSW 23.0 mph 29.9 mph N/A   Clear
12:15 PM 40.3 °F 30.4 °F 25.5 °F 56% 30.17 in 10.0 mi SW 21.9 mph 31.1 mph N/A   Clear
12:35 PM 41.0 °F 31.9 °F 25.7 °F 55% 30.17 in 10.0 mi SW 19.6 mph 28.8 mph N/A   Clear
12:55 PM 42.8 °F 34.0 °F 25.0 °F 49% 30.16 in 10.0 mi SW 20.7 mph 26.5 mph N/A   Clear
1:15 PM 43.0 °F 34.2 °F 24.3 °F 48% 30.15 in 10.0 mi SW 20.7 mph 25.3 mph N/A   Clear
1:35 PM 44.6 °F 37.2 °F 24.4 °F 45% 30.15 in 10.0 mi SW 17.3 mph 25.3 mph N/A   Clear
2:15 PM 44.8 °F 37.4 °F 23.9 °F 44% 30.15 in 10.0 mi SW 17.3 mph - N/A   Clear
2:35 PM 45.7 °F 38.8 °F 23.7 °F 42% 30.14 in 10.0 mi WSW 16.1 mph - N/A   Clear
2:55 PM 46.0 °F 39.6 °F 23.7 °F 42% 30.14 in 10.0 mi WSW 15.0 mph - N/A   Clear
3:15 PM 46.0 °F 39.6 °F 23.7 °F 42% 30.13 in 10.0 mi SW 15.0 mph - N/A   Clear
3:35 PM 46.0 °F 40.2 °F 23.7 °F 42% 30.15 in 10.0 mi WSW 12.7 mph - N/A   Clear
3:55 PM 45.7 °F 41.0 °F 23.5 °F 42% 30.15 in 10.0 mi West 9.2 mph - N/A   Clear
4:15 PM 45.1 °F 40.8 °F 24.3 °F 44% 30.16 in 10.0 mi West 8.1 mph - N/A   Clear
4:35 PM 43.0 °F 38.8 °F 24.3 °F 48% 30.17 in 10.0 mi West 6.9 mph - N/A   Clear
4:55 PM 37.8 °F 32.5 °F 23.0 °F 55% 30.17 in 10.0 mi NW 6.9 mph - N/A   Clear
5:15 PM 34.9 °F 28.3 °F 23.2 °F 62% 30.18 in 10.0 mi WNW 8.1 mph - N/A   Clear
5:55 PM 31.5 °F 24.2 °F 21.9 °F 68% 30.19 in 10.0 mi NW 8.1 mph - N/A   Clear
6:15 PM 29.1 °F 20.0 °F 21.6 °F 73% 30.20 in 10.0 mi NW 10.4 mph - N/A   Clear
6:35 PM 30.9 °F 23.5 °F 22.5 °F 71% 30.20 in 10.0 mi NW 8.1 mph - N/A   Clear
6:55 PM 30.6 °F 23.1 °F 22.5 °F 72% 30.21 in 10.0 mi NNW 8.1 mph - N/A   Clear
7:15 PM 29.8 °F 21.5 °F 22.6 °F 75% 30.22 in 10.0 mi NNW 9.2 mph - N/A   Clear
7:35 PM 29.3 °F 20.8 °F 22.1 °F 75% 30.22 in 10.0 mi NNW 9.2 mph - N/A   Clear
7:55 PM 28.6 °F 20.7 °F 21.6 °F 75% 30.24 in 10.0 mi NW 8.1 mph - N/A   Clear
8:15 PM 28.2 °F 20.2 °F 21.4 °F 76% 30.25 in 10.0 mi NW 8.1 mph - N/A   Clear
8:35 PM 26.4 °F 19.8 °F 20.3 °F 78% 30.25 in 10.0 mi NW 5.8 mph - N/A   Clear
8:55 PM 25.9 °F 17.4 °F 20.1 °F 79% 30.26 in 10.0 mi NW 8.1 mph - N/A   Clear
9:15 PM 26.4 °F 19.8 °F 20.3 °F 78% 30.26 in 10.0 mi NW 5.8 mph - N/A   Clear
9:35 PM 26.2 °F 20.7 °F 20.8 °F 80% 30.26 in 10.0 mi WNW 4.6 mph - N/A   Clear
9:55 PM 25.7 °F 19.0 °F 20.3 °F 80% 30.27 in 10.0 mi WNW 5.8 mph - N/A   Clear
10:15 PM 23.7 °F 16.6 °F 19.2 °F 83% 30.27 in 10.0 mi West 5.8 mph - N/A   Clear
10:35 PM 23.7 °F 16.6 °F 19.4 °F 84% 30.28 in 10.0 mi West 5.8 mph - N/A   Clear
10:55 PM 23.7 °F 16.6 °F 19.0 °F 82% 30.28 in 10.0 mi NW 5.8 mph - N/A   Clear
11:15 PM 23.9 °F 14.2 °F 19.9 °F 85% 30.28 in 10.0 mi WNW 9.2 mph - N/A   Clear
11:35 PM 23.5 °F 13.7 °F 18.9 °F 82% 30.28 in 10.0 mi NW 9.2 mph - N/A   Clear
11:55 PM 24.1 °F 15.2 °F 19.9 °F 84% 30.29 in 10.0 mi NW 8.1 mph - N/A   Clear